Lexington Weather

Lexington, Massachusetts, USA

34°F
10/30/2020 6:59am 
  • Lexington Conditions: Light snow, Mist, Overcast
  • Temperature: 33.8°F / 1.0°CColder 1.4°F than last hour.
  • Dew Point: 33.1°FDecreased 1.4°Fsince last hour.
  • Relative Humidity: 97
  • Wind: Wind from NE NE 1 mph, 10-min avg: 2 mph, gust: 9 mph
  • Barometer: 29.77 in Steady
  • Visibility: 3 miles
  • Rain Today: 0.09 in
  •   
Southeast Middlesex County - Winter Weather Advisory
 - SEE ALL NEARBY ALERTS -

Regional Weather Roundup
for Boston / Norton, MA

        
000
ASUS41 KBOX 232304
RWRBOX

REGIONAL WEATHER ROUNDUP
NATIONAL WEATHER SERVICE BOSTON/NORTON MA
700 PM EDT FRI OCT 23 2020

NOTE:  "FAIR" INDICATES FEW OR NO CLOUDS BELOW 12,000 FEET WITH NO 
SIGNIFICANT WEATHER AND/OR OBSTRUCTIONS TO VISIBILITY.

MAZALL-240000-
EASTERN MASSACHUSETTS
  
CITY           SKY/WX    TMP DP  RH WIND       PRES   REMARKS
BOSTON         PTCLDY    56  53  90 E8        30.14S                  
BEVERLY        CLEAR     56  53  90 E5        30.13S                  
LAWRENCE       CLOUDY    58  52  80 E5        30.14F                  
BEDFORD        PTCLDY    57  52  83 SE9       30.11S                  
BLUE HILL        N/A     54  52  93 E12       30.11F                  
NORWOOD        PTCLDY    58  52  80 E3        30.12S                  
MARSHFIELD     MOCLDY    59  59 100 SE7       30.13S                  
PLYMOUTH       CLEAR     56  53  90 E5        30.13S                  
TAUNTON        CLEAR     61  54  77 SE3       30.12S                  
NEW BEDFORD    CLEAR     60  55  83 SE6       30.12S                  
$$

MAZALL-240000-
CAPE COD AND THE ISLANDS
  
CITY           SKY/WX    TMP DP  RH WIND       PRES   REMARKS
FALMOUTH       CLOUDY    57  55  94 SE10      30.15S                  
HYANNIS        MOCLDY    58  54  86 E3        30.13S                  
CHATHAM        CLOUDY    58  55  90 E5        30.14F FOG              
PROVINCETOWN   MOCLDY    56  54  93 E6        30.14F                  
NANTUCKET      CLOUDY   N/A N/A N/A E8        30.13F                  
MARTHAS VNYRD  MOCLDY    58  55  90 E5        30.13S                  
$$
 
MAZALL-240000-
CENTRAL AND WESTERN MASSACHUSETTS
  
CITY           SKY/WX    TMP DP  RH WIND       PRES   REMARKS
WORCESTER      CLOUDY    62  57  83 S8        30.11F                  
FITCHBURG      CLOUDY    64  57  78 SE7       30.11S                  
ORANGE         CLOUDY    65  59  81 S3        30.10S                  
SPRINGFIELD    NOT AVBL                                               
WESTFIELD      CLOUDY    65  60  84 S10       30.09S                  
NORTH ADAMS    CLEAR     64  56  75 CALM      30.05S                  
PITTSFIELD     PTCLDY    63  56  78 SE12      30.07S                  
$$
 
RIZALL-240000-
RHODE ISLAND
  
CITY           SKY/WX    TMP DP  RH WIND       PRES   REMARKS
PROVIDENCE     CLEAR     60  57  89 S6        30.12S                  
NEWPORT        CLEAR     56  53  90 CALM      30.12S                  
BLOCK ISLAND   CLEAR     56  53  90 S3        30.13S                  
SMITHFIELD     CLEAR     59  58  96 CALM        N/A                   
WESTERLY       CLEAR     57  54  89 CALM      30.12S                  
$$
 
CTZALL-240000-
CONNECTICUT
  
CITY           SKY/WX    TMP DP  RH WIND       PRES   REMARKS
BRADLEY INTL   CLOUDY    64  58  80 S8        30.09F                  
HARTFORD       CLOUDY    64  58  80 S6        30.10S                  
BRIDGEPORT     CLOUDY    63  61  93 SE10      30.10S                  
DANBURY        CLOUDY    62  60  93 SE6       30.10S                  
GROTON         CLEAR     58  56  93 S5        30.11F                  
NEW HAVEN      CLOUDY    64  60  87 SE6       30.10F                  
CHESTER        CLOUDY    61  59  94 S5        30.12S                  
MERIDEN        CLOUDY    61  57  87 S5        30.11S                  
WILLIMANTIC    CLEAR     58  56  93 CALM      30.11F                  
OXFORD         CLOUDY    59  59 100 S5        30.12F FOG              
$$

MEZ002-015-021-024-NHZ003-005-008-011-012-014-VTZ005-008-240000-
NORTHERN NEW ENGLAND
  
CITY           SKY/WX    TMP DP  RH WIND       PRES   REMARKS
PORTLAND ME    CLOUDY    54  53  97 E3        30.15F                  
BANGOR ME      CLOUDY    55  50  83 S10       30.17R                  
CONCORD NH     CLOUDY    59  51  75 VRB7      30.11F                  
MANCHESTER NH  CLOUDY    60  51  72 SE7       30.10S                  
NASHUA NH      CLOUDY    61  55  81 SE9       30.12S                  
PORTSMOUTH NH  CLOUDY    56  51  83 E6        30.13S                  
JAFFREY NH     CLOUDY    61  56  83 S3        30.11S                  
KEENE NH       CLOUDY    64  59  83 SE3       30.09S                  
BURLINGTON VT  PTCLDY    66  57  72 E7        29.93F                  
MT. WASHINGTON NOT AVBL                                               
$$

NYZ052-076-240000-
EASTERN NEW YORK
  
CITY           SKY/WX    TMP DP  RH WIND       PRES   REMARKS
ALBANY         PTCLDY    66  58  75 SE16G24   30.01F                  
NEW YORK CITY  CLOUDY    65  58  78 S7        30.10S                  
$$
 
ANZALL-240000-
MARINE OBSERVATIONS
  
STATION/POSITION TIME  TEMP    WIND        PRES    VSBY  WAVE
                       AIR SEA DIR/SP/G                  HT/PER
                 (UTC) (F)     (DEG/KT/KT) (MB)    (MI)  (FT/S)
BOSTON BUOY      2250   58 59  110/ 10/ 12 1019.2S         4/11
BUZZARDS BAY     2200          150/  4/  5 1021.2F
NANTUCKET SOUND  2240      62  110/  8/ 10   N/A
MASS BAY-STELLWA 2204   58 58  110/ 10/ 14 1019.8F  1 7/8  5/11
ISLE OF SHOALS   2200   56     110/ 10/ 11 1020.2F
S OF BLOCK IS    2226      63                N/A           5/13
$$

......................KEY.........................
  SKY/WX - SKY CONDITION/PRESENT WEATHER
  TMP    - TEMPERATURE IN FAHRENHEIT
  DWPT   - DEWPOINT IN FAHRENHEIT
  RH     - RELATIVE HUMIDITY IN PERCENT
  WIND   - DIRECTION AND SPEED IN MPH
  PRES   - MEAN SEA LEVEL PRESSURE IN INCHES OF HG
  WCI    - WIND CHILL INDEX
  VSB    - VISIBILITY IN MILES
  HX     - HEAT INDEX
  TC     - TEMPERATURE IN CELSIUS
  VRB    - VARIABLE WIND DIRECTION
  N/A    - NOT AVAILABLE
  
      

Other recent Regional Weather Roundups

Fri Oct 30, 6:04am

Fri Oct 30, 5:04am

Fri Oct 30, 4:04am

Fri Oct 30, 3:04am

Fri Oct 30, 2:04am

Fri Oct 30, 1:04am

Fri Oct 30, 12:04am

Thu Oct 29, 11:04pm

Thu Oct 29, 10:04pm

Thu Oct 29, 9:04pm

Thu Oct 29, 8:04pm

Thu Oct 29, 7:04pm

Thu Oct 29, 6:04pm

Thu Oct 29, 5:05pm

Thu Oct 29, 4:05pm

Thu Oct 29, 3:05pm

Thu Oct 29, 2:04pm

Thu Oct 29, 1:04pm

Thu Oct 29, 12:04pm

Thu Oct 29, 11:04am

Thu Oct 29, 10:04am

Thu Oct 29, 9:04am

Thu Oct 29, 8:04am

Thu Oct 29, 7:04am

Thu Oct 29, 6:04am

Thu Oct 29, 5:04am

Thu Oct 29, 4:04am

Thu Oct 29, 3:04am

Thu Oct 29, 2:04am

Thu Oct 29, 1:05am

Thu Oct 29, 12:04am

Wed Oct 28, 11:05pm

Wed Oct 28, 10:04pm

Wed Oct 28, 9:04pm

Wed Oct 28, 8:04pm

Wed Oct 28, 7:05pm

Wed Oct 28, 6:04pm

Wed Oct 28, 5:05pm

Wed Oct 28, 4:04pm

Wed Oct 28, 3:04pm

Wed Oct 28, 2:04pm

Wed Oct 28, 1:05pm

Wed Oct 28, 12:05pm

Wed Oct 28, 11:05am

Wed Oct 28, 10:04am

Wed Oct 28, 9:04am

Wed Oct 28, 8:04am

Wed Oct 28, 7:04am

Wed Oct 28, 6:04am

Wed Oct 28, 5:05am

Wed Oct 28, 4:04am

Wed Oct 28, 3:04am

Wed Oct 28, 2:04am

Wed Oct 28, 1:05am

Wed Oct 28, 12:04am

Tue Oct 27, 11:04pm

Tue Oct 27, 10:04pm

Tue Oct 27, 9:05pm

Tue Oct 27, 8:04pm

Tue Oct 27, 7:04pm

Tue Oct 27, 6:04pm

Tue Oct 27, 5:04pm

Tue Oct 27, 4:05pm

Tue Oct 27, 3:04pm

Tue Oct 27, 2:04pm

Tue Oct 27, 1:04pm

Tue Oct 27, 12:04pm

Tue Oct 27, 11:04am

Tue Oct 27, 10:04am

Tue Oct 27, 9:04am

Tue Oct 27, 8:04am

Tue Oct 27, 7:04am

Tue Oct 27, 6:04am

Tue Oct 27, 5:04am

Tue Oct 27, 4:04am

Tue Oct 27, 3:04am

Tue Oct 27, 2:05am

Tue Oct 27, 1:04am

Tue Oct 27, 12:04am

Mon Oct 26, 11:05pm

Mon Oct 26, 10:04pm

Mon Oct 26, 9:04pm

Mon Oct 26, 8:04pm

Mon Oct 26, 7:04pm

Mon Oct 26, 6:04pm

Mon Oct 26, 5:04pm

Mon Oct 26, 4:05pm

Mon Oct 26, 2:04pm

Mon Oct 26, 1:04pm

Mon Oct 26, 12:04pm

Mon Oct 26, 11:05am

Mon Oct 26, 10:04am

Mon Oct 26, 9:04am

Mon Oct 26, 8:04am

Mon Oct 26, 7:04am

Mon Oct 26, 6:04am

Mon Oct 26, 5:04am

Mon Oct 26, 4:04am

Mon Oct 26, 3:04am

Mon Oct 26, 2:04am

Mon Oct 26, 1:04am

Mon Oct 26, 12:04am

Sun Oct 25, 11:05pm

Sun Oct 25, 10:04pm

Sun Oct 25, 9:04pm

Sun Oct 25, 8:04pm

Sun Oct 25, 7:04pm

Sun Oct 25, 6:04pm

Sun Oct 25, 5:04pm

Sun Oct 25, 4:05pm

Sun Oct 25, 3:04pm

Sun Oct 25, 2:04pm

Sun Oct 25, 1:04pm

Sun Oct 25, 12:04pm

Sun Oct 25, 11:04am

Sun Oct 25, 10:04am

Sun Oct 25, 9:04am

Sun Oct 25, 8:04am

Sun Oct 25, 7:04am

Sun Oct 25, 6:04am

Sun Oct 25, 5:04am

Sun Oct 25, 4:04am

Sun Oct 25, 3:04am

Sun Oct 25, 2:04am

Sun Oct 25, 1:05am

Sun Oct 25, 12:04am

Sat Oct 24, 11:04pm

Sat Oct 24, 10:04pm

Sat Oct 24, 9:04pm

Sat Oct 24, 8:04pm

Sat Oct 24, 7:04pm

Sat Oct 24, 6:04pm

Sat Oct 24, 5:05pm

Sat Oct 24, 4:04pm

Sat Oct 24, 3:04pm

Sat Oct 24, 2:04pm

Sat Oct 24, 1:05pm

Sat Oct 24, 12:04pm

Sat Oct 24, 11:05am

Sat Oct 24, 10:05am

Sat Oct 24, 9:04am

Sat Oct 24, 8:04am

Sat Oct 24, 7:04am

Sat Oct 24, 6:04am

Sat Oct 24, 5:04am

Sat Oct 24, 4:04am

Sat Oct 24, 3:04am

Sat Oct 24, 2:04am

Sat Oct 24, 1:05am

Sat Oct 24, 12:04am

Fri Oct 23, 11:04pm

Fri Oct 23, 10:04pm

Fri Oct 23, 9:04pm

Fri Oct 23, 8:05pm

Fri Oct 23, 6:04pm

Fri Oct 23, 5:05pm

Fri Oct 23, 4:04pm

Fri Oct 23, 3:04pm

Fri Oct 23, 2:05pm

Fri Oct 23, 1:04pm

Fri Oct 23, 12:04pm

Fri Oct 23, 11:04am

Fri Oct 23, 10:04am

Fri Oct 23, 9:04am

Fri Oct 23, 8:04am

Fri Oct 23, 7:04am

Meta data:

ID: eac45fa3-400d-4ac0-b69a-b8c0f5744e20
Link: https://api.weather.gov/products/eac45fa3-400d-4ac0-b69a-b8c0f5744e20